ALTAIR PATHFINDER (42711 NORAD) Tracking and Keplerian Element Data

This shows tracking and keplerian element data for the satellite.

Feedback or suggestion? Click here.




ElementValue
Catalog42711
NameALTAIR PATHFINDER
Epoch Orbit6623
Epoch Day198.59139826
Epoch Year2018
RAAN209.5658
Inclination51.6346
Eccentricity0.0003367
Argument of Perigee312.2983
Mean Anonmoly47.7727
Mean Motion15.65131795
Decay Rate0.00013277
L11 42711U 98067LS 18198.59139826 .00013277 00000-0 13709-3 0 9998
L22 42711 51.6346 209.5658 0003367 312.2983 47.7727 15.65131795 66238

Live tracking and technical data element details for ALTAIR PATHFINDER (NORAD 42711). ALTAIR PATHFINDER can be tracked NOW for your location showing map with azimuth and elevation plus other details from your city location.

Track the satellite on the map from your city or location and see movement details for azimuth, elevation, latitude, longitude, range, height, and movement on the map or in text.







IsCatalogInMostPopularTable: catalog: 42711, numindb: 87
Update: records affected: 1



GetName: 42711 ALTAIR PATHFINDER

Hit Count: updated at: Thu, 19 Jul 2018 21:23:29 GMT